Weather in Verkhny Naur

Russia / Chechen Republic     43°36′58″N   45°14′01″E
temp.,
°C
wind,
m/s
gust,
m/s
humid.,
%
clouds,
%
prec.,
mm/h
press.,
hPa
HPBL,
m
16 april, fri
fri1600:00+12w115896 0.0 101810
03:00+10wnw226411 0.0 101910
06:00+10sw116843 0.1 102010
09:00+16ene12505 0.1 1020649
12:00+19ene43420 0.0 10181489
15:00+20ene44390 0.0 10171755
18:00+17e47515 0.0 1017177
21:00+14ese34584 0.0 101858
17 april, sat
sat1700:00+12ese22585 0.0 101811
03:00+11se22616 0.0 101810
06:00+11ssw1171100 0.0 101710
09:00+17nw3354100 0.0 1017528
12:00+19wnw5646100 0.0 10181159
15:00+20nw664523 0.0 10181513
18:00+15wnw6865100 0.0 1020578
21:00+13wnw3679100 0.0 1022520
18 april, sun
sun1800:00+11nw2390100 0.0 1022322
03:00+11n3494100 0.0 1022410
06:00+11ne1291100 0.0 1022282
09:00+13ese3377100 0.1 1020628
12:00+18e455999 0.0 10171217
15:00+20e5550100 0.0 10151396
18:00+16ene3661100 0.1 1016179
21:00+13sse1166100 0.4 101913
19 april, mon
mon1900:00+12s1179100 0.1 101810
03:00+12w1178100 0.1 101710
06:00+12nne1179100 0.0 101810
09:00+17e3361100 0.0 1017398
12:00+21ene554959 0.0 1016752
15:00+23e664399 0.0 10141242
18:00+19e5957100 0.0 1014323
21:00+14ese3662100 0.0 1015162
20 april, tue
tue2000:00+11ese376891 0.0 1013192
03:00+11ese3572100 0.0 101192
06:00+12e1270100 0.0 101064
09:00+17ese4659100 0.0 1007291
12:00+23e5745100 0.0 1004446
15:00+22ene4549100 0.0 1003413
18:00+18nnw1266100 0.0 100427
21:00+15w61182100 0.4 1011541